TimeCET,TemperatureF,Dew PointF,Humidity,Sea Level PressureIn,VisibilityMPH,Wind Direction,Wind SpeedMPH,Gust SpeedMPH,PrecipitationIn,Events,Conditions,WindDirDegrees,DateUTC
6:00 AM,51.8,42.8,71,29.92,6.2,NW,21.9,35.7,N/A,,Mostly Cloudy,320,2012-12-09 05:00:00
6:50 AM,50.0,39.2,66,29.95,6.2,NW,29.9,44.9,N/A,,Mostly Cloudy,310,2012-12-09 05:50:00
7:50 AM,51.8,41.0,67,29.98,6.2,NNW,24.2,42.6,N/A,Rain,Rain,330,2012-12-09 06:50:00
8:50 AM,55.4,37.4,51,29.98,6.2,NW,23.0,34.5,N/A,,Mostly Cloudy,320,2012-12-09 07:50:00
10:50 AM,55.4,41.0,58,30.01,6.2,NW,26.5,-,N/A,,Mostly Cloudy,320,2012-12-09 09:50:00
11:50 AM,55.4,41.0,58,30.01,6.2,NW,24.2,42.6,N/A,,Scattered Clouds,320,2012-12-09 10:50:00
12:50 PM,51.8,42.8,71,29.98,6.2,NW,19.6,-,N/A,Rain,Light Rain,310,2012-12-09 11:50:00
1:50 PM,55.4,39.2,54,29.98,6.2,NNW,28.8,43.7,N/A,Rain,Light Rain,330,2012-12-09 12:50:00
2:50 PM,55.4,33.8,44,30.01,6.2,NW,32.2,46.0,N/A,,Scattered Clouds,320,2012-12-09 13:50:00
3:50 PM,55.4,37.4,51,30.01,6.2,NW,27.6,41.4,N/A,,Scattered Clouds,320,2012-12-09 14:50:00
4:50 PM,55.4,35.6,47,30.04,6.2,NW,31.1,43.7,N/A,,Scattered Clouds,320,2012-12-09 15:50:00
5:25 PM,55.4,37.4,51,30.04,6.2,NNW,28.8,40.3,N/A,Rain,Rain,330,2012-12-09 16:25:00
5:50 PM,55.4,37.4,51,30.04,6.2,NNW,28.8,42.6,N/A,Rain,Rain,330,2012-12-09 16:50:00
6:27 PM,53.6,37.4,54,30.06,6.2,NNW,31.1,47.2,N/A,,Scattered Clouds,330,2012-12-09 17:27:00
6:50 PM,55.4,37.4,51,30.06,6.2,NNW,28.8,40.3,N/A,,Scattered Clouds,330,2012-12-09 17:50:00
7:50 PM,55.4,33.8,44,30.06,6.2,NNW,26.5,41.4,N/A,,Scattered Clouds,330,2012-12-09 18:50:00
8:15 PM,53.6,39.2,58,30.09,6.2,NNW,29.9,44.9,N/A,Rain,Rain,340,2012-12-09 19:15:00
8:36 PM,53.6,33.8,47,30.09,6.2,NNW,31.1,42.6,N/A,,Scattered Clouds,340,2012-12-09 19:36:00
8:50 PM,55.4,35.6,47,30.09,6.2,NNW,31.1,43.7,N/A,,Scattered Clouds,340,2012-12-09 19:50:00
9:50 PM,53.6,37.4,54,30.09,6.2,NNW,26.5,38.0,N/A,,Scattered Clouds,330,2012-12-09 20:50:00